Location: Molveno
(46.1500°N, 10.9667°E)
Time: 08:04:43
(UTC+00:00)

Cosmos 1842 Rocket - Pass Details

Date: 05 July 2020
Orbit: 604 x 635 km, 82.5° (Epoch: 06 August)

Event Time Altitude Azimuth Distance (km) Brightness Sun altitude
Rises 21:40:32 0° 346° (NNW) 2,886 8.6 -17.5°
Reaches altitude 10° 21:42:49 10° 342° (NNW) 1,972 7.4 -17.7°
Maximum altitude 21:47:02 52° 266° (W) 756 4.1 -18.0°
Enters shadow 21:49:03 28° 203° (SSW) 1,144 4.5 -18.1°
